Meknes, Morocco

12:40 AM WEST on July 24, 2017 (GMT +0100)
Meknes

Weather History for GMFM - February, 2013

Change the Weather History Date:

Tuesday, February 5, 2013

  Actual Average (GMFF) Record (GMFF)
Temperature  
Mean Temperature 51 °F -  
Max Temperature 65 °F 62 °F 76 °F (2016)
Min Temperature 37 °F 43 °F 30 °F (2011)
Degree Days  
Heating Degree Days 14    
Growing Degree Days 1 (Base 50)    
Moisture  
Dew Point 40 °F    
Average Humidity 60    
Maximum Humidity 87    
Minimum Humidity 29    
Precipitation  
Precipitation 0.00 in 0.11 in - ()
Sea Level Pressure  
Sea Level Pressure 30.30 in    
Wind  
Wind Speed 4 mph ()    
Max Wind Speed 12 mph    
Max Gust Speed -    
Visibility 4.8 miles    
Events      
Averages and records for this station are not official NWS values.
T = Trace of Precipitation, MM = Missing Value Source: Averaged Metar Reports

Daily Weather History Graph

Daily Weather History Graph

Search for Another Location

Airport or City:

Trip Planner

Search our weather history database for the weather conditions in past years. The results will help you decide how hot, cold, wet, or windy it might be!

Date:

Astronomy

Feb. 05, 2013 Rise Set
Actual Time 7:15 AM WET 5:56 PM WET
Civil Twilight 6:49 AM WET 6:22 PM WET
Nautical Twilight 6:20 AM WET 6:52 PM WET
Astronomical Twilight 5:50 AM WET 7:21 PM WET
Moon 2:37 AM WET (2/5) 1:06 PM WET (2/5)
Length of Visible Light 11h 33m
Length of Day
10h 41m
Waning Crescent, 29% of the Moon is Illuminated
Feb 5
Waning Crescent
Feb 10
New
Feb 17
First Quarter
Feb 25
Full
Mar 4
Last Quarter

Hourly Weather History & Observations

Time (WET) Temp. Windchill Dew Point Humidity Pressure Visibility Wind Dir Wind Speed Gust Speed Precip Events Conditions
12:00 AM 43 °F - 33 °F 59% 30.33 in 7 mi SE 2.3 mph - -  
12:00 AM 42.8 °F - 33.8 °F 70% 30.30 in - SE 2.3 mph - N/A   Clear
1:00 AM 42.8 °F - 33.8 °F 70% 30.30 in - SE 2.3 mph - N/A   Clear
2:00 AM 42.8 °F - 35.6 °F 76% 30.27 in - Calm Calm - N/A   Clear
3:00 AM 46 °F - 36 °F 59% 30.31 in 7 mi South 4.6 mph - -  
3:00 AM 46.4 °F 43.5 °F 37.4 °F 71% 30.27 in - South 5.8 mph - N/A   Clear
4:00 AM 42.8 °F - 33.8 °F 70% 30.30 in - SE 2.3 mph - N/A   Clear
5:00 AM 48.2 °F - 35.6 °F 62% 30.27 in - South 6.9 mph - N/A   Clear
6:00 AM 48 °F - 36 °F 52% 30.31 in 7 mi South 5.8 mph - -  
6:00 AM 48.2 °F - 35.6 °F 62% 30.27 in - South 5.8 mph - N/A   Clear
7:00 AM 46.4 °F 43.5 °F 35.6 °F 66% 30.30 in - South 5.8 mph - N/A   Clear
8:00 AM 50.0 °F - 35.6 °F 58% 30.33 in - South 5.8 mph - N/A   Clear
9:00 AM 55 °F - 39 °F 43% 30.34 in 6 mi South 5.8 mph - -  
9:00 AM 55.4 °F - 39.2 °F 54% 30.33 in - South 5.8 mph - N/A   Clear
10:00 AM 59.0 °F - 41.0 °F 51% 30.36 in 5.0 mi SSW 5.8 mph - N/A   Clear
11:00 AM 62.6 °F - 37.4 °F 39% 30.36 in 5.0 mi WSW 8.1 mph - N/A   Clear
12:00 PM 63 °F - 38 °F 29% 30.30 in 4 mi West 6.9 mph - -  
12:00 PM 62.6 °F - 39.2 °F 42% 30.33 in 3.7 mi West 6.9 mph - N/A   Clear
1:00 PM 64.4 °F - 41.0 °F 42% 30.30 in 3.7 mi West 6.9 mph - N/A   Clear
2:00 PM 64.4 °F - 41.0 °F 42% 30.27 in 5.0 mi West 8.1 mph - N/A   Clear
3:00 PM 64 °F - 45 °F 39% 30.23 in 4 mi WNW 6.9 mph - -  
3:00 PM 64.4 °F - 44.6 °F 49% 30.27 in 3.7 mi WNW 6.9 mph - N/A   Clear
4:00 PM 62.6 °F - 44.6 °F 52% 30.27 in 3.7 mi West 8.1 mph - N/A   Clear
5:00 PM 60.8 °F - 44.6 °F 55% 30.27 in 3.7 mi WNW 11.5 mph - N/A   Clear
6:00 PM 58 °F - 46 °F 55% 30.27 in 4 mi WNW 3.5 mph - -  
6:00 PM 59.0 °F - 46.4 °F 63% 30.30 in 3.7 mi WNW 3.5 mph - N/A   Clear
7:00 PM 55.4 °F - 46.4 °F 72% 30.30 in 3.7 mi WNW 4.6 mph - N/A   Clear
8:00 PM 50.0 °F - 44.6 °F 82% 30.33 in - WNW 3.5 mph - N/A   Clear
9:00 PM 49 °F - 45 °F 80% 30.35 in 6 mi West 2.3 mph - -  
9:00 PM 50.0 °F - 44.6 °F 82% 30.33 in - West 2.3 mph - N/A   Unknown
10:00 PM 48.2 °F - 44.6 °F 87% 30.33 in - SW 2.3 mph - N/A   Clear
11:00 PM 46.4 °F - 41.0 °F 81% 30.33 in - South 2.3 mph - N/A   Clear